Location: Hamburg
(53.5500°N, 10.0000°E)
Time: 04:19:55
(UTC+02:00)

ISS - Visible Passes

Search period start: 30 March 2015 00:00
Search period end: 09 April 2015 00:00
Orbit: 396 x 406 km, 51.6° (Epoch: 29 March)

Date Brightness Start Highest point End Pass type
(mag) Time Alt. Az. Time Alt. Az. Time Alt. Az.
30 Mar -1.7 05:24:55 19° SSW 05:24:55 19° SSW 05:26:43 10° SSE visible
05 Apr -1.9 21:31:52 10° SSW 21:34:11 21° SSE 21:34:11 21° SSE visible
06 Apr -1.4 20:39:10 10° S 20:41:03 15° SE 20:42:59 10° ESE visible
06 Apr -2.4 22:13:46 10° SW 22:16:02 34° SSW 22:16:02 34° SSW visible
07 Apr -2.5 21:20:25 10° SW 21:23:22 32° SSE 21:25:01 20° ESE visible
07 Apr -1.3 22:56:16 10° WSW 22:57:36 22° WSW 22:57:36 22° WSW visible
08 Apr -3.3 22:02:41 10° WSW 22:05:53 55° S 22:06:22 49° SE visible
08 Apr -0.3 23:38:54 10° W 23:38:57 10° W 23:38:57 10° W visible
